, AK

(GMT )
Golovin

Weather History for PAGL - September, 2013

Change the Weather History Date:

Saturday, September 14, 2013

  Actual Average Record
Temperature  
Mean Temperature 40 °F -  
Max Temperature 46 °F - - ()
Min Temperature 35 °F - - ()
Degree Days  
Heating Degree Days 24    
Moisture  
Dew Point 37 °F    
Average Humidity 85    
Maximum Humidity 93    
Minimum Humidity 76    
Precipitation  
Precipitation 0.00 in - - ()
Sea Level Pressure  
Sea Level Pressure 30.12 in    
Wind  
Wind Speed 6 mph (NW)    
Max Wind Speed 9 mph    
Max Gust Speed -    
Visibility 10 miles    
Events      
T = Trace of Precipitation, MM = Missing Value Source: NWS Daily Summary

Daily Weather History Graph

Daily Weather History Graph

Search for Another Location

Airport or City:

Trip Planner

Search our weather history database for the weather conditions in past years. The results will help you decide how hot, cold, wet, or windy it might be!

Date:

Astronomy

Sep. 14, 2013 Rise Set
Actual Time 8:13 AM AKDT 9:20 PM AKDT
Civil Twilight 7:23 AM AKDT 10:09 PM AKDT
Nautical Twilight 6:19 AM AKDT 11:12 PM AKDT
Astronomical Twilight 4:59 AM AKDT 12:30 AM AKDT
Moon 7:31 PM AKDT (9/14) 1:22 AM AKDT (9/14)
Length of Visible Light 14h 46m
Length of Day
13h 07m
Waxing Gibbous, 74% of the Moon is Illuminated
Sep 14
Waxing Gibbous
Sep 19
Full
Sep 26
Last Quarter
Oct 4
New
Oct 11
First Quarter

Hourly Weather History & Observations

Time (AKDT) Temp. Windchill Dew Point Humidity Pressure Visibility Wind Dir Wind Speed Gust Speed Precip Events Conditions
12:16 AM 42.8 °F 37.5 °F 39.2 °F 87% 30.02 in 10.0 mi NNW 9.2 mph - N/A   Clear
12:36 AM 41.0 °F 36.4 °F 39.2 °F 93% 30.02 in 10.0 mi NW 6.9 mph - N/A   Clear
12:56 AM 42.8 °F 37.5 °F 39.2 °F 87% 30.03 in 10.0 mi NW 9.2 mph - N/A   Clear
1:16 AM 41.0 °F 35.8 °F 39.2 °F 93% 30.03 in 10.0 mi NW 8.1 mph - N/A   Clear
2:16 AM 39.2 °F 33.0 °F 37.4 °F 93% 30.05 in 10.0 mi NNW 9.2 mph - N/A   Clear
2:36 AM 37.4 °F 31.4 °F 35.6 °F 93% 30.05 in 10.0 mi NNW 8.1 mph - N/A   Clear
2:56 AM 35.6 °F 30.7 °F 33.8 °F 93% 30.06 in 10.0 mi North 5.8 mph - N/A   Clear
3:16 AM 37.4 °F 32.1 °F 33.8 °F 87% 30.06 in 10.0 mi NNW 6.9 mph - N/A   Clear
3:36 AM 37.4 °F 32.1 °F 35.6 °F 93% 30.07 in 10.0 mi NNW 6.9 mph - N/A   Clear
3:56 AM 37.4 °F 32.1 °F 33.8 °F 87% 30.07 in 10.0 mi NNW 6.9 mph - N/A   Clear
4:16 AM 35.6 °F 29.9 °F 32.0 °F 87% 30.07 in 10.0 mi North 6.9 mph - N/A   Clear
4:36 AM 35.6 °F 30.7 °F 32.0 °F 87% 30.08 in 10.0 mi North 5.8 mph - N/A   Partly Cloudy
4:56 AM 37.4 °F 32.1 °F 33.8 °F 87% 30.08 in 10.0 mi NW 6.9 mph - N/A   Mostly Cloudy
5:16 AM 37.4 °F 30.8 °F 33.8 °F 87% 30.09 in 10.0 mi NW 9.2 mph - N/A   Overcast
5:36 AM 37.4 °F 32.1 °F 33.8 °F 87% 30.09 in 10.0 mi North 6.9 mph - N/A   Overcast
5:56 AM 37.4 °F 32.8 °F 33.8 °F 87% 30.09 in 10.0 mi NNW 5.8 mph - N/A   Overcast
6:56 AM 35.6 °F 28.6 °F 33.8 °F 93% 30.09 in 10.0 mi NNW 9.2 mph - N/A   Clear
7:16 AM 35.6 °F 29.9 °F 33.8 °F 93% 30.10 in 10.0 mi NW 6.9 mph - N/A   Mostly Cloudy
7:36 AM 37.4 °F 32.1 °F 33.8 °F 87% 30.10 in 10.0 mi NW 6.9 mph - N/A   Overcast
7:56 AM 37.4 °F 32.1 °F 35.6 °F 93% 30.10 in 10.0 mi NNW 6.9 mph - N/A   Overcast
8:16 AM 35.6 °F 29.9 °F 33.8 °F 93% 30.11 in 10.0 mi NNW 6.9 mph - N/A   Overcast
8:36 AM 35.6 °F 30.7 °F 33.8 °F 93% 30.11 in 10.0 mi NNW 5.8 mph - N/A   Mostly Cloudy
9:16 AM 37.4 °F 32.1 °F 33.8 °F 87% 30.12 in 10.0 mi NNW 6.9 mph - N/A   Overcast
9:36 AM 35.6 °F 30.7 °F 33.8 °F 93% 30.13 in 10.0 mi NNW 5.8 mph - N/A   Overcast
9:56 AM 35.6 °F 32.8 °F 33.8 °F 93% 30.13 in 10.0 mi North 3.5 mph - N/A   Overcast
10:16 AM 37.4 °F 34.9 °F 35.6 °F 93% 30.14 in 10.0 mi NW 3.5 mph - N/A   Overcast
10:36 AM 37.4 °F 34.9 °F 33.8 °F 87% 30.14 in 10.0 mi NW 3.5 mph - N/A   Overcast
10:56 AM 37.4 °F 33.8 °F 35.6 °F 93% 30.14 in 10.0 mi WNW 4.6 mph - N/A   Overcast
11:16 AM 37.4 °F 33.8 °F 33.8 °F 87% 30.14 in 10.0 mi NW 4.6 mph - N/A   Overcast
11:36 AM 39.2 °F 37.0 °F 35.6 °F 87% 30.15 in 10.0 mi NW 3.5 mph - N/A   Overcast
11:56 AM 39.2 °F 37.0 °F 35.6 °F 87% 30.15 in 10.0 mi NW 3.5 mph - N/A   Overcast
12:16 PM 39.2 °F 35.9 °F 35.6 °F 87% 30.15 in 10.0 mi NW 4.6 mph - N/A   Overcast
12:36 PM 39.2 °F 35.9 °F 35.6 °F 87% 30.15 in 10.0 mi NW 4.6 mph - N/A   Overcast
12:56 PM 42.8 °F - 37.4 °F 81% 30.15 in 10.0 mi Calm Calm - N/A   Overcast
1:16 PM 44.6 °F - 37.4 °F 76% 30.15 in 10.0 mi Calm Calm - N/A   Overcast
1:36 PM 44.6 °F 42.2 °F 37.4 °F 76% 30.14 in 10.0 mi WNW 4.6 mph - N/A   Overcast
1:56 PM 42.8 °F 40.1 °F 37.4 °F 81% 30.14 in 10.0 mi NW 4.6 mph - N/A   Overcast
2:16 PM 42.8 °F 39.3 °F 39.2 °F 87% 30.15 in 10.0 mi NW 5.8 mph - N/A   Overcast
2:36 PM 42.8 °F 39.3 °F 37.4 °F 81% 30.15 in 10.0 mi WNW 5.8 mph - N/A   Overcast
2:56 PM 42.8 °F 40.1 °F 39.2 °F 87% 30.15 in 10.0 mi NW 4.6 mph - N/A   Overcast
3:16 PM 44.6 °F 42.2 °F 39.2 °F 81% 30.15 in 10.0 mi WNW 4.6 mph - N/A   Overcast
3:36 PM 44.6 °F 42.2 °F 39.2 °F 81% 30.15 in 10.0 mi WNW 4.6 mph - N/A   Overcast
3:56 PM 44.6 °F 43.1 °F 39.2 °F 81% 30.15 in 10.0 mi NW 3.5 mph - N/A   Overcast
4:16 PM 44.6 °F 43.1 °F 39.2 °F 81% 30.15 in 10.0 mi WNW 3.5 mph - N/A   Overcast
4:36 PM 44.6 °F 43.1 °F 39.2 °F 81% 30.15 in 10.0 mi WNW 3.5 mph - N/A   Overcast
4:56 PM 44.6 °F 42.2 °F 39.2 °F 81% 30.14 in 10.0 mi NW 4.6 mph - N/A   Overcast
5:16 PM 46.4 °F 44.3 °F 39.2 °F 76% 30.14 in 10.0 mi WNW 4.6 mph - N/A   Overcast
5:36 PM 44.6 °F 41.4 °F 39.2 °F 81% 30.14 in 10.0 mi NW 5.8 mph - N/A   Overcast
5:56 PM 46.4 °F 45.2 °F 39.2 °F 76% 30.14 in 10.0 mi NW 3.5 mph - N/A   Overcast
6:16 PM 46.4 °F 44.3 °F 39.2 °F 76% 30.14 in 10.0 mi WNW 4.6 mph - N/A   Overcast
6:36 PM 46.4 °F 45.2 °F 39.2 °F 76% 30.14 in 10.0 mi NW 3.5 mph - N/A   Overcast
6:56 PM 46.4 °F 44.3 °F 39.2 °F 76% 30.14 in 10.0 mi NW 4.6 mph - N/A   Overcast
7:16 PM 46.4 °F 43.5 °F 39.2 °F 76% 30.14 in 10.0 mi NW 5.8 mph - N/A   Overcast
7:36 PM 46.4 °F 44.3 °F 39.2 °F 76% 30.14 in 10.0 mi NW 4.6 mph - N/A   Overcast
7:56 PM 46.4 °F 44.3 °F 39.2 °F 76% 30.14 in 10.0 mi NW 4.6 mph - N/A   Overcast
8:16 PM 46.4 °F 44.3 °F 39.2 °F 76% 30.14 in 10.0 mi WNW 4.6 mph - N/A   Overcast
8:36 PM 46.4 °F 44.3 °F 39.2 °F 76% 30.15 in 10.0 mi WNW 4.6 mph - N/A   Overcast
8:56 PM 44.6 °F 42.2 °F 39.2 °F 81% 30.15 in 10.0 mi WNW 4.6 mph - N/A   Overcast
9:16 PM 44.6 °F - 39.2 °F 81% 30.15 in 10.0 mi Calm Calm - N/A   Overcast
9:36 PM 44.6 °F 42.2 °F 41.0 °F 87% 30.15 in 10.0 mi North 4.6 mph - N/A   Overcast
9:56 PM 44.6 °F 42.2 °F 39.2 °F 81% 30.15 in 10.0 mi NNE 4.6 mph - N/A   Overcast
10:16 PM 42.8 °F 41.1 °F 39.2 °F 87% 30.15 in 10.0 mi NNE 3.5 mph - N/A   Overcast
10:36 PM 42.8 °F 40.1 °F 39.2 °F 87% 30.15 in 10.0 mi NNE 4.6 mph - N/A   Overcast
10:56 PM 42.8 °F 40.1 °F 37.4 °F 81% 30.15 in 10.0 mi NNE 4.6 mph - N/A   Overcast
11:16 PM 42.8 °F 39.3 °F 37.4 °F 81% 30.15 in 10.0 mi NNE 5.8 mph - N/A   Overcast
11:36 PM 42.8 °F 40.1 °F 37.4 °F 81% 30.16 in 10.0 mi NNE 4.6 mph - N/A   Scattered Clouds
11:56 PM 41.0 °F 37.1 °F 37.4 °F 87% 30.15 in 10.0 mi NNE 5.8 mph - N/A   Clear